TOURFACTS.DK  
Stats and Facts from Tour de France.

Tour de France 2019 starts in 348 days
  Riders   Stages   Teams   Summits   Yearly  


 
Search by year

After 2018 - Stage 14:
 15000 starters.
  5163 different riders.
  639 teams.
  2246 stages.
  456 restdays.
  441957.60 km.
  5678 abandonnees.


Top 3
GC
Christopher Froome86:20:55
Rigoberto Urán86:21:49
Romain Bardet86:23:15
Climb
Warren Barguil169 pt.
Primoz Roglic80 pt.
Thomas De Gendt64 pt.
Sprint
Michael Matthews359 pt.
André Greipel234 pt.
Edvald Boasson Hagen220 pt.
Youth
Simon Yates86:27:09
Louis Meintjes86:29:15
Emanuel Buchmann86:54:16
Facts from Tour de France 1990
  |   Stages.  |   Stage winners.  |   Days in yellow  |   Average speed.  |   Route.  |   Teams.  |   All riders.  |   Rookies.  |  

  |   Withdrawls.  |   GC.  |   Polka  |   Green  |   White  |   Summits. (In tour)  |   Miscellaneous.  |  

Stage 17 on July 18th. 1990
         Owning:    Claudio Chiappucci    
Pick a stage:  Pro 1 2 3 4 5 6 7 8 9 10 11 12 13 14 15 16 17 18 19 20 21
From: Lourdes    To: PauDist:150.00 km.
Cat: HCol de l'AubisqueCOLOscar Vargas
40 points
 
Cat: 1Col de Marie-BlanqueFRADominique Arnaud
30 points
 
Cat: 4Côte de LasseubeAUSStephen Hodge
5 points
 
Cat: 4Côte de SoustBELJohan Bruyneel
5 points
 
Cat: 3Cöte de Notre-dame-de-PietatBELJohan Bruyneel
10 points
 

Average speed for all riders in stage:  34,545 km./hr.
    Place:Name:Team:Time:Km/h:
URSDimitri KonychevITAAlfa Lum04:08:25  +  00:00:00=36,229 
CANSteve BauerUSA7-Eleven-Hoonved04:08:36  +  00:00:11=36,203 
3 FRAJean-Claude ColottiFRAR.M.O.-Mavic-Liberia04:08:57  +  00:00:32=36,152 
4 ITADavide CassaniITAAriostea04:08:57  +  00:00:32=36,152 
5 COLReynel MontoyaCOLRyalcao-Postobon04:08:57  +  00:00:32=36,152 
6 FRAPascal SimonFRACastorama-Raleigh04:08:59  +  00:00:34=36,147 
7 FRADominique ArnaudESPBanesto04:09:18  +  00:00:53=36,101 
8 FRALaurent BiondiBELHistor-Sigma04:11:24  +  00:02:59=35,800 
9 BELPeter De ClercqBELLotto-Superclub04:12:03  +  00:03:38=35,707 
10 AUSStephen HodgeESPO.N.C.E.04:12:04  +  00:03:39=35,705 
11 ESPMiguel IndurainESPBanesto04:13:56  +  00:05:31=35,442 
12 ITAClaudio ChiappucciITACarrera Jeans-Vagabond04:13:56  +  00:05:31=35,442 
13 ESPPello RuizESPO.N.C.E.04:13:56  +  00:05:31=35,442 
14 USAGreg LeMondFRAZ-Peugeot04:13:56  +  00:05:31=35,442 
15 IRLSean KellyNLDPDM-Concorde04:13:56  +  00:05:31=35,442 
16 ITAMassimo GhirottoITACarrera Jeans-Vagabond04:13:56  +  00:05:31=35,442 
17 BELClaude CriquielionBELLotto-Superclub04:13:56  +  00:05:31=35,442 
18 FRAGilbert Duclos-LassalleFRAZ-Peugeot04:13:56  +  00:05:31=35,442 
19 ITAAlessandro GiannelliITACarrera Jeans-Vagabond04:13:56  +  00:05:31=35,442 
20 FRAPascal LinoFRAR.M.O.-Mavic-Liberia04:13:56  +  00:05:31=35,442 
21 FRAGilles DelionCHEHelvetia-La Suisse04:13:56  +  00:05:31=35,442 
22 COLWilliam PulidoCOLRyalcao-Postobon04:13:56  +  00:05:31=35,442 
23 SUIBeat BreuCHEWeinmann-La Suisse-S.M.M. Uste..04:13:56  +  00:05:31=35,442 
24 FRAPascal LanceNLDToshiba04:13:56  +  00:05:31=35,442 
25 SUIGianni BugnoITAChateau d'Ax04:13:56  +  00:05:31=35,442 
26 URSViatcheslav EkimovNLDPanasonic-Sportlife04:13:56  +  00:05:31=35,442 
27 FRAJerôme SimonFRAZ-Peugeot04:13:56  +  00:05:31=35,442 
28 COLAlvaro MejiaCOLRyalcao-Postobon04:13:56  +  00:05:31=35,442 
29 ESPEduardo ChozasESPO.N.C.E.04:13:56  +  00:05:31=35,442 
30 COLWilliam PalacioCOLRyalcao-Postobon04:13:56  +  00:05:31=35,442 
31 ESPRaúl AlcaláNLDPDM-Concorde04:13:56  +  00:05:31=35,442 
32 NEDErik BreukinkNLDPDM-Concorde04:13:56  +  00:05:31=35,442 
33 FRAFabrice PhilipotFRACastorama-Raleigh04:13:56  +  00:05:31=35,442 
34 FRAJean-Claude BagotFRAR.M.O.-Mavic-Liberia04:13:56  +  00:05:31=35,442 
35 FRAThierry ClaveyrolatFRAR.M.O.-Mavic-Liberia04:13:56  +  00:05:31=35,442 
36 ESPPedro DelgadoESPBanesto04:13:56  +  00:05:31=35,442 
37 COLAbelardo RondonESPBanesto04:13:56  +  00:05:31=35,442 
38 USAAndy HampstenUSA7-Eleven-Hoonved04:13:56  +  00:05:31=35,442 
39 ESPMarino LejarretaESPO.N.C.E.04:13:56  +  00:05:31=35,442 
40 FRAÉric BoyerFRAZ-Peugeot04:13:56  +  00:05:31=35,442 
41 NORAtle KvålsvollFRAZ-Peugeot04:13:56  +  00:05:31=35,442 
42 COLFabio Parra PintoESPKelme-Ibexpress04:13:56  +  00:05:31=35,442 
43 ITAGiancarlo PeriniITACarrera Jeans-Vagabond04:13:56  +  00:05:31=35,442 
44 COLNelson RodriguezESPKelme-Ibexpress04:14:05  +  00:05:40=35,421 
45 ESPJesus RodriguezESPBanesto04:14:05  +  00:05:40=35,421 
46 COLOscar VargasCOLRyalcao-Postobon04:14:05  +  00:05:40=35,421 
47 PORAcacio da SilvaITACarrera Jeans-Vagabond04:14:05  +  00:05:40=35,421 
48 ITARoberto ContiITAAriostea04:14:05  +  00:05:40=35,421 
49 FRAFrédéric BrunFRAR.M.O.-Mavic-Liberia04:14:05  +  00:05:40=35,421 
50 ESPAnselmo FuerteESPO.N.C.E.04:14:05  +  00:05:40=35,421 
51 SUIErich MächlerITACarrera Jeans-Vagabond04:14:05  +  00:05:40=35,421 
52 BELPatrick RobeetCHEWeinmann-La Suisse-S.M.M. Uste..04:14:05  +  00:05:40=35,421 
53 ESPMelchor MauriESPO.N.C.E.04:14:05  +  00:05:40=35,390 
54 FRARoland Le ClercNLDToshiba04:15:31  +  00:07:06=35,223 
55 DENSøren LilholtBELHistor-Sigma04:22:48  +  00:14:23=34,247 
56 FRALaurent PillonBELHistor-Sigma04:22:48  +  00:14:23=34,247 
57 DENBrian HolmBELHistor-Sigma04:22:48  +  00:14:23=34,247 
58 ESPJosé UreaFRASeur04:22:48  +  00:14:23=34,247 
59 ENGPhil AndersonNLDTVM04:22:48  +  00:14:23=34,247 
60 IRLStephen RocheBELHistor-Sigma04:22:48  +  00:14:23=34,247 
61 PORJosé FerreiraFRASeur04:22:48  +  00:14:23=34,247 
62 USABob RollUSA7-Eleven-Hoonved04:22:48  +  00:14:23=34,247 
63 NEDGerrit De VriesNLDBuckler04:22:48  +  00:14:23=34,247 
64 ESPPablo MorenoFRASeur04:22:48  +  00:14:23=34,247 
65 FRAFrançois LemarchandFRAZ-Peugeot04:22:48  +  00:14:23=34,247 
66 NEDPatrick TolhoekNLDBuckler04:22:48  +  00:14:23=34,247 
67 NORDag Otto LauritzenUSA7-Eleven-Hoonved04:22:48  +  00:14:23=34,247 
68 COLPablo HernandezCOLRyalcao-Postobon04:22:48  +  00:14:23=34,247 
69 SUIMauro GianettiCHEHelvetia-La Suisse04:22:48  +  00:14:23=34,247 
70 USAAndrew BishopUSA7-Eleven-Hoonved04:22:48  +  00:14:23=34,247 
71 FRARonan PensecFRAZ-Peugeot04:22:48  +  00:14:23=34,247 
72 FRADenis RouxNLDToshiba04:22:48  +  00:14:23=34,247 
73 SUIJörg MüllerNLDTVM04:22:48  +  00:14:23=34,247 
74 BELRudy DhaenensNLDPDM-Concorde04:22:48  +  00:14:23=34,247 
75 USARonald KiefelUSA7-Eleven-Hoonved04:22:48  +  00:14:23=34,247 
76 ITAValerio PivaITAAriostea04:22:48  +  00:14:23=34,247 
77 BELJos HaexBELLotto-Superclub04:22:48  +  00:14:23=34,247 
78 NEDJos Van AertNLDPDM-Concorde04:22:48  +  00:14:23=34,247 
79 NEDMaarten DucrotNLDTVM04:22:48  +  00:14:23=34,247 
80 SUIHans-Rüdi MärkiCHEHelvetia-La Suisse04:22:48  +  00:14:23=34,247 
81 FRAPhilippe LouviotNLDToshiba04:22:48  +  00:14:23=34,247 
82 FRAChristian ChaubetNLDToshiba04:22:48  +  00:14:23=34,247 
83 URSAlexandre TrubineITAAlfa Lum04:22:48  +  00:14:23=34,247 
84 FRALuc LeblancFRACastorama-Raleigh04:22:48  +  00:14:23=34,247 
85 DDRUwe RaabNLDPDM-Concorde04:22:48  +  00:14:23=34,247 
86 BELPaul HaghedoorenBELHistor-Sigma04:22:48  +  00:14:23=34,247 
87 FRAThierry LaurentFRAR.M.O.-Mavic-Liberia04:22:48  +  00:14:23=34,247 
88 URSPiotr UgrumovITAAlfa Lum04:22:48  +  00:14:23=34,247 
89 DDROlaf LudwigNLDPanasonic-Sportlife04:22:48  +  00:14:23=34,247 
90 DDRJan SchurITAChateau d'Ax04:22:48  +  00:14:23=34,247 
91 ITARoberto GusmeroliITAChateau d'Ax04:22:48  +  00:14:23=34,247 
92 COLCarlos JaramilloCOLRyalcao-Postobon04:22:48  +  00:14:23=34,247 
93 ITAAlberto VolpiITAChateau d'Ax04:22:48  +  00:14:23=34,247 
94 ITAMauro-Antonio SantaromitaITAChateau d'Ax04:22:48  +  00:14:23=34,247 
95 ITAAdriano BaffiITAAriostea04:22:48  +  00:14:23=34,247 
96 BELJohan MuseeuwBELLotto-Superclub04:22:48  +  00:14:23=34,247 
97 SUIKurt SteinmannCHEWeinmann-La Suisse-S.M.M. Uste..04:22:48  +  00:14:23=34,247 
98 ITAAlberto ElliITAAriostea04:22:48  +  00:14:23=34,247 
99 ITABruno CenghialtaITAAriostea04:22:48  +  00:14:23=34,247 
100 ESPAntonio DiasESPKelme-Ibexpress04:22:48  +  00:14:23=34,247 
101 ITAMarcello SiboniITAAriostea04:22:48  +  00:14:23=34,247 
102 ESPVicente RidauraFRASeur04:22:48  +  00:14:23=34,247 
103 ESPHerminio ZabalaESPO.N.C.E.04:22:48  +  00:14:23=34,247 
104 COLJuan CastilloCOLRyalcao-Postobon04:22:48  +  00:14:23=34,247 
105 ITAGuido BontempiITACarrera Jeans-Vagabond04:22:48  +  00:14:23=34,247 
106 NEDFrans MaassenNLDBuckler04:22:48  +  00:14:23=34,247 
107 NEDSteven RooksNLDPanasonic-Sportlife04:22:48  +  00:14:23=34,247 
108 URSNikolai GolovatenkoITAAlfa Lum04:22:48  +  00:14:23=34,247 
109 COLGerardo MoncadaCOLRyalcao-Postobon04:22:48  +  00:14:23=34,247 
110 BELGuy NulensNLDPanasonic-Sportlife04:22:48  +  00:14:23=34,247 
111 BELMichel DerniesCHEWeinmann-La Suisse-S.M.M. Uste..04:22:48  +  00:14:23=34,247 
112 DENTony RomingerITAChateau d'Ax04:22:48  +  00:14:23=34,247 
113 BELMarc SergeantNLDPanasonic-Sportlife04:22:48  +  00:14:23=34,247 
114 BELWillem Van EyndeBELLotto-Superclub04:22:48  +  00:14:23=34,247 
115 ENGSean YatesUSA7-Eleven-Hoonved04:22:48  +  00:14:23=34,247 
116 ESPMiguel Angel MartinezESPO.N.C.E.04:22:48  +  00:14:23=34,247 
117 ITAGiuseppe SaronniESPKelme-Ibexpress04:22:48  +  00:14:23=34,247 
118 ITARodolfo MassiITAAriostea04:22:48  +  00:14:23=34,247 
119 FRAVincent BarteauFRACastorama-Raleigh04:27:45  +  00:19:20=33,613 
120 FRAThierry MarieFRACastorama-Raleigh04:27:45  +  00:19:20=33,613 
121 BELEric Van LanckerNLDPanasonic-Sportlife04:27:45  +  00:19:20=33,613 
122 USANorman AlvisUSA7-Eleven-Hoonved04:27:45  +  00:19:20=33,613 
123 USADavis PhinneyUSA7-Eleven-Hoonved04:27:45  +  00:19:20=33,613 
124 BELWilfried PeetersBELHistor-Sigma04:27:45  +  00:19:20=33,613 
125 URSVasily ZhdanovITAAlfa Lum04:27:45  +  00:19:20=33,613 
126 ESPJuan MartinezESPBanesto04:27:45  +  00:19:20=33,613 
127 URSDjamolidine AbduzhaparovITAAlfa Lum04:27:45  +  00:19:20=33,613 
128 ESPAntonio EspejoESPKelme-Ibexpress04:27:45  +  00:19:20=33,613 
129 NEDToine PoelsNLDBuckler04:27:45  +  00:19:20=33,613 
130 COLNéstor MoraESPKelme-Ibexpress04:27:45  +  00:19:20=33,613 
131 BELMichel VermoteFRAR.M.O.-Mavic-Liberia04:27:45  +  00:19:20=33,613 
132 NEDJan SiemonsNLDTVM04:27:45  +  00:19:20=33,613 
133 NEDJelle NijdamNLDBuckler04:27:45  +  00:19:20=33,613 
134 DDRMario KummerITAChateau d'Ax04:27:45  +  00:19:20=33,613 
135 FRAJean-Claude LeclercqCHEHelvetia-La Suisse04:27:45  +  00:19:20=33,613 
136 FRACharly MottetFRAR.M.O.-Mavic-Liberia04:27:45  +  00:19:20=33,613 
137 ITAGiovanni FidanzaITAChateau d'Ax04:27:45  +  00:19:20=33,613 
138 BELCarlo BomansCHEWeinmann-La Suisse-S.M.M. Uste..04:27:45  +  00:19:20=33,613 
139 NEDAdri Van Der PoelCHEWeinmann-La Suisse-S.M.M. Uste..04:27:45  +  00:19:20=33,613 
140 ENGMaximilian SciandriITACarrera Jeans-Vagabond04:27:45  +  00:19:20=33,613 
141 FRABruno CornilletFRAZ-Peugeot04:27:45  +  00:19:20=33,613 
142 NEDMartin SchalkersNLDTVM04:27:45  +  00:19:20=33,613 
143 SUIThomas WegmüllerCHEWeinmann-La Suisse-S.M.M. Uste..04:27:45  +  00:19:20=33,613 
144 NEDGert JakobsNLDPDM-Concorde04:27:45  +  00:19:20=33,613 
145 ITAGuiseppe CalcaterraITAChateau d'Ax04:27:45  +  00:19:20=33,613 
146 GERAndreas KappesNLDToshiba04:27:45  +  00:19:20=33,613 
147 NEDHenri MandersCHEHelvetia-La Suisse04:27:45  +  00:19:20=33,613 
148 NEDJean-Paul van PoppelNLDPanasonic-Sportlife04:27:45  +  00:19:20=33,613 
149 ESPJesús RosadoESPKelme-Ibexpress04:27:45  +  00:19:20=33,613 
150 NEDGerrit SolleveldNLDBuckler04:27:45  +  00:19:20=33,613 
151 BELJan GoessensCHEWeinmann-La Suisse-S.M.M. Uste..04:27:45  +  00:19:20=33,613 
152 NEDEdwig Van HooydonckNLDBuckler04:27:45  +  00:19:20=33,613 
153 BELHendrik RedantBELLotto-Superclub04:27:45  +  00:19:20=33,613 
154 BELPeter RoesBELLotto-Superclub04:27:45  +  00:19:20=33,613 
155 BELPatrick VerschuerenBELLotto-Superclub04:27:45  +  00:19:20=33,613 

Withdrawls: 4
 
Rider
Team
Reason
17  DENBjarne RiisFRACastorama-RaleighDid not start
26  ESPLuis LukinESPBanestoDid not finish
118  SUINiki RüttimannCHEHelvetia-La SuisseDid not start
119  SUIGuido WinterbergCHEHelvetia-La SuisseDid not finish

Todays birthdays.

1877  Antoine Perrichon
1878  Auguste Berthault
1911  Théo Herckenrath
1924  Carlo Lafranchi
1931  Armand Di Caro
1937  Jean-Claude Lebaube
1951  Giovanni Battaglin
1961  Pascal Jules
1962  Jean-Claude Leclercq
1976  Janek Tombak
1978  Francisco Pérez
1983  Dries Devenyns




Visits: